Temp
82 84 84 78 75 77 69 64 66 68 70 76 80 77 77 78 79 80 82 82 84 86 86 87 88 87 87 86 85 84 87 84
82 83 81 82 78 74 74 61 60 66 64 72 75 72 74 76 77 78 80 81 84 86 88 88 91 92 89 89 87 86 87 85
78 79 78 78 78 71 74 70 68 66 71 75 74 73 73 75 77 78 79 80 84 85 86 87 90 91 91 89 87 86 86 85
76 81 80 80 77 79 75 66 68 70 71 75 77 77 77 76 77 78 78 79 81 82 84 85 87 87 87 88 88 86 85 84
76 80 79 78 75 75 76 75 67 71 71 72 75 75 75 77 77 77 78 78 78 80 82 82 84 87 84 84 86 87 85 86
72 72 73 75 75 75 78 75 71 75 69 71 75 75 75 76 77 77 76 76 77 78 78 79 80 80 82 84 85 85 86 86
74 74 73 74 75 76 74 77 77 71 76 77 78 77 76 77 76 75 75 76 77 77 77 78 78 80 82 84 84 86 83 83
74 76 76 73 75 73 73 72 73 75 72 79 78 79 78 76 75 74 75 76 76 77 78 78 77 77 78 77 77 81 83 83
70 73 76 71 73 75 75 75 76 77 77 77 77 78 78 77 77 76 78 78 77 76 76 76 77 77 77 77 78 78 78 78
72 72 63 76 79 77 76 75 78 77 76 81 80 80 80 80 80 78 79 79 80 80 78 77 78 78 77 77 77 78 77 77
69 69 70 76 76 76 76 76 79 78 78 78 79 81 78 81 81 81 82 81 81 81 80 78 79 77 77 77 77 78 78 77
66 64 61 73 78 82 81 76 81 81 79 78 80 77 77 82 83 82 84 84 83 82 83 83 80 80 80 78 77 76 76 76
67 67 72 77 80 82 71 74 80 82 81 79 79 81 83 83 82 84 84 83 84 83 83 82 82 82 79 79 79 77 77 77
65 65 64 77 80 76 77 77 80 82 81 79 82 81 82 83 83 83 83 82 82 83 83 83 82 80 79 78 78 78 78 78
73 73 74 76 77 80 79 79 80 82 83 84 84 83 82 83 84 85 85 84 85 84 82 82 80 80 78 78 78 78 78 77
70 73 75 79 80 82 84 84 85 86 84 86 85 86 85 85 86 86 86 84 83 82 81 80 79 78 79 79 78 77 77 77
71 74 76 80 82 84 84 84 86 85 86 86 86 84 85 83 83 84 83 83 82 81 80 80 79 78 80 79 78 77 77 78
74 78 78 79 82 83 83 84 86 85 84 83 84 84 82 81 82 82 82 82 81 80 80 80 79 79 79 79 77 78 79 81
78 78 78 81 82 84 84 84 86 86 85 82 82 83 82 80 81 73 81 81 81 80 80 79 79 79 80 79 78 78 78 78
MSLP
1005.60 1005.54 1005.82 1006.32 1006.90 1007.26 1007.43 1008.92 1008.62 1008.69 1008.59 1008.46 1008.62 1009.62 1009.99 1010.27 1010.53 1010.73 1010.83 1010.97 1011.26 1011.48 1011.68 1011.75 1011.84 1012.09 1012.43 1012.94 1013.34 1013.92 1014.30 1014.97
1005.41 1005.51 1006.07 1005.83 1006.71 1006.98 1006.84 1007.42 1007.64 1007.98 1008.26 1008.07 1008.52 1009.66 1010.18 1010.55 1010.64 1010.88 1011.06 1011.19 1011.17 1011.24 1011.20 1011.36 1011.48 1011.77 1012.27 1012.55 1012.88 1013.19 1013.65 1014.18
1005.68 1005.37 1005.40 1006.14 1006.19 1006.86 1006.99 1007.36 1007.02 1007.37 1007.63 1008.57 1008.92 1009.87 1010.32 1010.68 1010.89 1011.06 1011.14 1011.06 1010.86 1010.97 1011.06 1011.05 1011.21 1011.48 1011.77 1012.26 1012.54 1012.87 1013.21 1013.65
1005.23 1005.49 1005.88 1005.65 1005.89 1005.91 1005.87 1006.93 1007.34 1007.55 1008.33 1009.14 1009.36 1010.08 1010.56 1010.76 1011.18 1011.23 1011.27 1011.25 1011.16 1011.10 1010.89 1010.76 1010.79 1011.08 1011.23 1011.65 1011.99 1012.28 1012.75 1013.28
1005.23 1005.65 1005.95 1005.82 1006.23 1006.33 1006.15 1006.29 1006.66 1006.94 1008.26 1009.67 1010.00 1010.23 1010.66 1010.84 1011.26 1011.55 1011.61 1011.53 1011.32 1010.97 1010.79 1010.87 1010.91 1010.86 1011.17 1011.35 1011.56 1011.86 1012.36 1012.77
1005.83 1006.07 1006.52 1005.97 1006.11 1006.40 1005.88 1005.69 1006.23 1006.72 1007.84 1009.24 1009.75 1010.20 1010.72 1011.05 1011.32 1011.50 1011.44 1011.35 1011.23 1011.24 1011.29 1011.34 1011.15 1011.00 1011.12 1011.20 1011.53 1011.76 1011.97 1012.35
1006.70 1006.65 1006.70 1006.50 1006.32 1006.31 1006.18 1006.02 1005.90 1007.23 1007.35 1008.49 1009.43 1009.89 1010.55 1011.12 1011.54 1011.76 1011.83 1011.82 1011.83 1011.72 1011.67 1011.79 1011.58 1011.41 1011.30 1011.37 1011.62 1011.67 1012.09 1012.41
1006.64 1006.69 1006.54 1006.53 1006.50 1006.59 1006.61 1006.59 1006.87 1007.27 1008.16 1009.02 1009.66 1010.09 1010.74 1011.32 1011.78 1011.99 1012.18 1012.36 1012.27 1012.00 1012.00 1012.35 1012.39 1012.44 1012.54 1012.47 1012.40 1012.31 1012.31 1012.40
1006.96 1006.96 1006.47 1006.62 1006.73 1006.53 1006.60 1006.92 1007.07 1006.91 1007.98 1009.26 1009.75 1010.27 1010.82 1011.27 1011.62 1011.94 1012.17 1012.41 1012.67 1012.88 1012.92 1013.01 1013.14 1013.20 1013.19 1013.14 1013.05 1012.91 1012.98 1013.12
1007.54 1007.23 1006.74 1006.70 1006.95 1006.86 1006.71 1007.05 1007.42 1007.73 1008.29 1008.70 1009.43 1010.35 1010.94 1011.30 1011.34 1011.70 1012.06 1012.37 1012.66 1013.00 1013.36 1013.53 1013.58 1013.56 1013.51 1013.40 1013.30 1013.27 1013.43 1013.50
1008.22 1007.78 1007.52 1006.70 1006.95 1007.02 1006.81 1007.15 1007.51 1007.80 1008.40 1009.01 1009.73 1010.26 1010.95 1011.24 1011.51 1011.77 1011.88 1012.32 1012.64 1013.05 1013.36 1013.57 1013.52 1013.59 1013.51 1013.55 1013.53 1013.34 1013.30 1013.53
1008.71 1008.03 1007.39 1007.26 1007.30 1007.26 1007.13 1006.93 1007.47 1007.71 1008.26 1008.82 1009.42 1009.51 1010.21 1010.87 1011.33 1011.68 1011.85 1012.08 1012.37 1012.72 1013.05 1013.20 1013.42 1013.35 1013.27 1013.46 1013.61 1013.55 1013.51 1013.60
1008.69 1008.21 1007.68 1007.69 1007.61 1007.44 1007.35 1008.09 1007.59 1007.78 1008.25 1008.84 1009.20 1009.52 1009.87 1010.66 1011.24 1011.47 1011.76 1012.08 1012.38 1012.55 1012.66 1012.85 1013.13 1013.21 1013.14 1013.16 1013.29 1013.64 1013.66 1013.76
1009.19 1008.58 1008.27 1008.13 1007.82 1007.78 1008.03 1007.90 1007.82 1008.02 1008.47 1008.95 1009.24 1009.75 1010.10 1010.57 1010.89 1011.20 1011.62 1012.03 1012.25 1012.28 1012.41 1012.64 1012.94 1013.07 1013.09 1013.15 1013.36 1013.51 1013.63 1013.63
1009.02 1008.59 1008.63 1008.58 1008.38 1008.24 1008.20 1007.96 1008.12 1008.22 1008.60 1008.85 1009.14 1009.59 1010.06 1010.27 1010.49 1010.79 1011.15 1011.71 1011.91 1012.14 1012.44 1012.74 1013.00 1013.14 1013.09 1013.15 1013.30 1013.37 1013.43 1013.43
1009.23 1008.99 1008.72 1008.41 1008.39 1008.27 1008.20 1008.09 1008.23 1008.36 1008.65 1008.91 1009.09 1009.46 1009.82 1010.17 1010.37 1010.66 1011.15 1011.58 1011.95 1012.12 1012.36 1012.70 1013.05 1013.16 1013.19 1013.28 1013.42 1013.40 1013.37 1013.43
1008.89 1008.79 1008.81 1008.49 1008.34 1008.23 1008.35 1008.41 1008.36 1008.53 1008.69 1008.93 1009.25 1009.65 1010.02 1010.39 1010.73 1011.08 1011.42 1011.68 1012.03 1012.30 1012.54 1012.73 1012.97 1013.01 1013.03 1013.26 1013.41 1013.33 1013.38 1013.46
1008.29 1008.23 1008.30 1008.17 1008.26 1008.38 1008.36 1008.33 1008.44 1008.59 1008.91 1009.26 1009.44 1009.73 1010.23 1010.57 1011.08 1011.43 1011.65 1011.93 1012.20 1012.36 1012.48 1012.67 1012.83 1012.84 1012.89 1013.13 1013.28 1013.36 1013.45 1013.42
1008.51 1008.51 1008.53 1008.47 1008.40 1008.30 1008.30 1008.46 1008.58 1008.75 1008.93 1009.27 1009.64 1009.93 1010.38 1010.77 1011.25 1011.59 1011.83 1012.03 1012.14 1012.29 1012.41 1012.46 1012.54 1012.52 1012.63 1012.93 1013.07 1013.17 1013.28 1013.44
Wind_Speed
1 3 3 8 5 3 8 1 3 2 2 6 6 10 7 8 7 4 6 7 8 9 9 12 14 16 16 15 14 13 14 11
4 2 10 3 9 5 3 3 3 2 3 1 5 11 10 8 7 7 4 4 3 6 10 11 13 12 14 14 14 14 14 13
3 0 3 5 4 6 5 2 2 1 3 2 2 10 9 10 7 5 3 1 4 6 8 10 10 12 12 14 14 13 13 12
2 2 1 1 2 4 4 5 0 3 4 2 3 4 5 6 4 4 4 4 6 7 7 8 10 11 13 12 14 14 12 11
4 5 4 1 2 2 5 3 5 3 5 3 4 3 3 6 6 5 5 5 5 4 4 4 7 10 11 11 12 11 11 12
3 2 4 1 1 7 3 4 8 2 6 7 10 7 6 6 6 8 10 10 8 6 5 5 4 5 7 8 9 10 11 12
4 3 1 4 3 7 5 2 4 7 11 10 8 8 8 7 6 6 8 9 8 7 7 7 7 6 2 4 6 8 8 8
1 7 1 2 4 2 2 3 3 11 10 6 7 8 8 7 7 6 7 7 7 8 8 9 10 9 8 8 7 5 6 6
1 8 3 4 5 4 1 2 1 4 7 13 11 10 6 6 8 9 7 7 7 6 6 7 7 8 8 7 7 5 4 4
2 4 3 5 3 5 1 4 4 8 13 11 13 10 8 4 7 7 8 7 7 6 5 4 4 5 5 6 4 3 5 5
1 1 5 2 3 3 3 5 3 9 12 13 12 11 7 5 5 3 6 6 6 6 5 4 4 4 4 4 3 1 4 4
3 2 4 3 2 4 2 2 6 8 14 15 12 6 5 9 7 6 3 3 3 4 4 3 2 1 2 4 3 3 4 4
3 3 3 2 5 4 5 3 3 9 13 14 6 4 8 10 8 7 5 3 1 1 3 3 1 3 4 5 5 2 1 2
3 2 4 2 3 3 4 2 3 7 11 10 6 7 11 11 9 8 6 4 2 2 4 4 3 1 3 4 4 3 1 2
4 2 3 3 4 5 2 3 3 7 7 10 8 9 10 8 6 4 1 4 2 2 2 2 1 2 2 3 3 4 4 5
3 4 3 3 2 1 2 6 6 6 9 9 7 7 6 5 4 3 0 3 4 3 4 3 1 3 4 3 3 4 4 4
2 3 4 5 5 3 4 4 6 5 5 7 6 7 6 6 4 3 3 3 3 3 3 2 1 4 4 4 4 5 4 3
3 5 1 2 2 3 5 7 6 6 5 4 6 6 5 6 5 5 4 3 1 0 2 1 2 4 4 4 5 5 4 2
1 4 3 2 4 6 9 7 6 5 4 4 4 6 8 9 6 5 5 4 2 3 4 4 4 3 1 3 4 4 4 2
Wind_Direction
206 165 217 163 195 61 110 145 265 348 269 266 49 115 175 183 175 171 200 200 212 235 234 234 222 209 209 208 210 204 205 203
103 108 61 258 129 173 94 172 254 238 277 24 30 74 107 123 111 97 107 126 180 246 238 232 234 224 220 213 215 210 209 206
189 313 161 149 167 70 101 312 278 277 81 207 120 91 88 93 66 63 76 177 273 266 245 238 237 230 219 221 219 213 210 211
9 54 350 13 108 194 230 182 288 315 97 30 192 78 54 57 58 2 350 315 273 260 250 232 233 222 221 219 222 219 214 217
142 156 154 60 81 100 112 139 183 216 117 116 132 69 44 37 44 53 11 4 340 325 276 252 255 235 223 222 226 217 213 220
236 25 349 26 113 156 275 192 155 187 135 166 159 125 93 80 57 28 12 5 12 22 4 326 271 232 236 234 227 222 218 215
76 354 225 297 292 219 248 302 251 121 143 152 117 109 89 78 71 50 34 25 28 30 14 360 360 357 327 254 238 230 223 222
88 8 47 128 31 106 208 201 110 139 101 114 114 109 107 104 105 89 74 58 29 15 20 20 17 24 28 31 27 346 258 234
239 343 312 197 354 323 145 185 349 147 123 157 141 126 120 122 110 107 92 84 83 69 51 45 53 42 34 26 13 40 72 80
348 315 253 64 314 262 344 100 127 104 147 152 133 120 125 117 103 107 112 105 98 95 87 58 36 35 36 42 38 102 114 113
270 258 322 183 42 355 5 117 130 133 143 135 129 126 121 136 139 136 113 111 98 95 89 81 55 54 73 66 52 91 191 221
154 225 230 51 7 325 261 169 154 158 154 152 153 162 151 169 174 195 169 116 108 111 110 88 72 34 23 52 33 346 321 312
156 227 264 256 300 300 208 55 156 166 160 158 162 61 138 160 181 187 174 190 192 315 348 345 332 356 354 351 42 51 232 226
141 206 235 29 269 251 32 79 168 169 161 156 120 135 154 164 171 165 168 164 192 258 292 302 322 320 329 336 6 44 66 310
242 77 335 287 286 315 267 122 137 159 164 164 139 155 165 166 167 175 135 91 141 254 250 285 299 215 289 319 322 339 335 331
208 163 254 317 166 171 117 112 127 142 165 176 165 159 163 170 190 230 32 84 108 92 66 57 122 207 239 286 286 278 304 332
237 239 253 234 222 184 158 154 130 130 153 182 179 181 186 183 186 184 149 117 88 89 92 62 272 253 247 243 247 274 304 328
210 192 183 224 184 201 201 190 173 164 160 181 214 202 175 171 165 154 154 145 166 70 300 277 247 244 233 216 214 235 248 263
265 178 212 297 278 230 217 195 189 207 223 215 197 166 153 144 148 143 152 169 137 27 339 296 243 237 182 192 216 237 249 273